CEB4806 RPVI-RPLC

Flight info

Callsign CEB4806
Flight time N/A
Altitude 36000
Route LAMBO1S LAMBO B472 IBAGO DCT MIA DCT OLIVA OLIVA3P
Aircraft A320/M-SDE3FGHIRWY/LB1

Departure

Time N/A
Airport Iloilo International Airport (RPVI)

Arrival

Time 2026-05-04 04:10
Airport Clark International Airport / Clark Air Base (RPLC)
Time Latitude Longitude Altitude Speed Heading
2026-05-04 03:45 13.51483 121.32241 35973 ft 450 kts 335°
2026-05-04 03:45 13.54373 121.30994 35962 ft 451 kts 339°
2026-05-04 03:46 13.60409 121.29160 35961 ft 452 kts 342°
2026-05-04 03:46 13.66454 121.27367 35961 ft 452 kts 342°
2026-05-04 03:47 13.72506 121.25564 35912 ft 455 kts 342°
2026-05-04 03:47 13.75571 121.24650 35084 ft 463 kts 342°
2026-05-04 03:47 13.78666 121.23725 34509 ft 462 kts 342°
2026-05-04 03:47 13.81745 121.22805 33955 ft 460 kts 342°
2026-05-04 03:48 13.84812 121.21892 33352 ft 458 kts 342°
2026-05-04 03:48 13.87862 121.20987 32813 ft 454 kts 342°
2026-05-04 03:48 13.90890 121.20091 32271 ft 451 kts 343°
2026-05-04 03:48 13.93897 121.19200 31732 ft 449 kts 342°
2026-05-04 03:49 13.95883 121.18611 31377 ft 447 kts 343°
2026-05-04 03:49 13.98854 121.17723 30852 ft 444 kts 343°
2026-05-04 03:49 14.01814 121.16835 30340 ft 442 kts 342°
2026-05-04 03:49 14.04757 121.15952 29800 ft 439 kts 343°
2026-05-04 03:50 14.07679 121.15078 29288 ft 435 kts 343°
2026-05-04 03:50 14.10571 121.14215 28806 ft 430 kts 342°
2026-05-04 03:50 14.13430 121.13363 28348 ft 425 kts 342°
2026-05-04 03:50 14.16260 121.12522 27876 ft 421 kts 343°
2026-05-04 03:51 14.19059 121.11688 27406 ft 416 kts 343°
2026-05-04 03:51 14.21823 121.10862 26944 ft 413 kts 343°
2026-05-04 03:51 14.24569 121.10039 26480 ft 409 kts 343°
2026-05-04 03:51 14.27295 121.09224 26010 ft 406 kts 343°
2026-05-04 03:52 14.30004 121.08411 25522 ft 404 kts 343°
2026-05-04 03:52 14.32698 121.07602 25039 ft 402 kts 343°
2026-05-04 03:52 14.35383 121.06796 24534 ft 401 kts 343°
2026-05-04 03:52 14.38051 121.05996 24035 ft 400 kts 344°
2026-05-04 03:53 14.40718 121.05197 23517 ft 399 kts 344°
2026-05-04 03:53 14.43380 121.04400 22951 ft 397 kts 344°
2026-05-04 03:53 14.46026 121.03610 22456 ft 394 kts 344°
2026-05-04 03:53 14.48656 121.02824 21963 ft 392 kts 344°
2026-05-04 03:54 14.51191 121.01830 21490 ft 390 kts 333°
2026-05-04 03:54 14.53487 121.00363 21075 ft 386 kts 327°
2026-05-04 03:54 14.55726 120.98834 20616 ft 384 kts 327°
2026-05-04 03:54 14.57921 120.97344 20138 ft 383 kts 327°
2026-05-04 03:55 14.60134 120.95848 19728 ft 379 kts 327°
2026-05-04 03:55 14.62315 120.94376 19387 ft 375 kts 327°
2026-05-04 03:55 14.64492 120.92904 18808 ft 369 kts 327°
2026-05-04 03:55 14.66613 120.91468 18291 ft 359 kts 327°
2026-05-04 03:56 14.68683 120.90065 17838 ft 354 kts 327°
2026-05-04 03:56 14.70740 120.88673 17413 ft 353 kts 327°
2026-05-04 03:56 14.72784 120.87290 16997 ft 351 kts 327°
2026-05-04 03:56 14.74821 120.85908 16589 ft 349 kts 328°
2026-05-04 03:57 14.76849 120.84532 16175 ft 348 kts 328°
2026-05-04 03:57 14.78870 120.83157 15776 ft 347 kts 328°
2026-05-04 03:57 14.80887 120.81785 15378 ft 347 kts 328°
2026-05-04 03:57 14.82899 120.80421 14983 ft 346 kts 328°
2026-05-04 03:58 14.86918 120.77698 14206 ft 344 kts 328°
2026-05-04 03:58 14.88922 120.76339 13790 ft 344 kts 328°
2026-05-04 03:58 14.90924 120.74976 13353 ft 344 kts 328°
2026-05-04 03:59 14.92916 120.73619 12950 ft 342 kts 328°
2026-05-04 03:59 14.95006 120.72482 12540 ft 338 kts 342°
2026-05-04 03:59 14.97266 120.71915 12146 ft 333 kts 354°
2026-05-04 03:59 14.99552 120.71611 11781 ft 329 kts 355°
2026-05-04 04:00 15.01818 120.71310 11373 ft 328 kts 354°
2026-05-04 04:00 15.04065 120.71011 10996 ft 326 kts 354°
2026-05-04 04:00 15.06296 120.70713 10630 ft 323 kts 354°
2026-05-04 04:00 15.08516 120.70414 10357 ft 317 kts 354°
2026-05-04 04:01 15.10652 120.70124 10118 ft 303 kts 354°
2026-05-04 04:01 15.12714 120.69844 9571 ft 296 kts 354°
2026-05-04 04:01 15.14744 120.69581 8984 ft 291 kts 356°
2026-05-04 04:01 15.16729 120.69385 8534 ft 281 kts 358°
2026-05-04 04:02 15.18644 120.69231 8146 ft 271 kts 358°
2026-05-04 04:02 15.20489 120.69091 7778 ft 261 kts 358°
2026-05-04 04:02 15.22251 120.68958 7424 ft 256 kts 360°
2026-05-04 04:02 15.24023 120.69070 7053 ft 255 kts 13°
2026-05-04 04:03 15.25710 120.69597 6751 ft 252 kts 24°
2026-05-04 04:03 15.27339 120.70256 6456 ft 251 kts 23°
2026-05-04 04:03 15.28965 120.70902 6121 ft 250 kts 23°
2026-05-04 04:03 15.30587 120.71542 5791 ft 249 kts 23°
2026-05-04 04:04 15.32208 120.72166 5476 ft 248 kts 19°
2026-05-04 04:04 15.33925 120.72267 5172 ft 252 kts 351°
2026-05-04 04:04 15.35502 120.71474 4871 ft 257 kts 320°
2026-05-04 04:04 15.36516 120.69976 4685 ft 254 kts 295°
2026-05-04 04:05 15.37222 120.68325 4538 ft 246 kts 295°
2026-05-04 04:05 15.37886 120.66722 4421 ft 238 kts 289°
2026-05-04 04:05 15.37934 120.65060 4302 ft 231 kts 250°
2026-05-04 04:05 15.37058 120.63713 3973 ft 230 kts 215°
2026-05-04 04:06 15.35609 120.62978 3545 ft 236 kts 198°
2026-05-04 04:06 15.34061 120.62375 3195 ft 239 kts 198°
2026-05-04 04:06 15.32508 120.61763 2890 ft 239 kts 198°
2026-05-04 04:06 15.30955 120.61147 2593 ft 239 kts 198°
2026-05-04 04:07 15.29414 120.60534 2305 ft 230 kts 198°
2026-05-04 04:07 15.28010 120.59974 2041 ft 200 kts 198°
2026-05-04 04:07 15.26790 120.59490 1769 ft 177 kts 197°
2026-05-04 04:07 15.25677 120.59063 1509 ft 166 kts 195°
2026-05-04 04:08 15.24618 120.58647 1397 ft 161 kts 197°
2026-05-04 04:08 15.23574 120.58244 1201 ft 160 kts 198°
2026-05-04 04:08 15.22533 120.57809 995 ft 162 kts 200°
2026-05-04 04:08 15.21480 120.57392 789 ft 162 kts 199°
2026-05-04 04:09 15.20440 120.56979 567 ft 159 kts 200°
2026-05-04 04:09 15.19438 120.56576 439 ft 146 kts 200°
2026-05-04 04:09 15.18631 120.56257 427 ft 99 kts 201°
2026-05-04 04:09 15.18152 120.56068 426 ft 50 kts 200°
2026-05-04 04:10 15.17886 120.55962 423 ft 39 kts 201°
2026-05-04 04:10 15.17628 120.55861 429 ft 39 kts 201°
2026-05-04 04:10 15.17454 120.55782 427 ft 20 kts 215°